When you browse on this site, cookies collect data to enhance your experience and personalize the content and advertising you see.
Visit our Privacy Policy to learn more. By continuing to use the site, you agree to this use of cookies and data.
  • In Latvia
  • List of Countries
  • For 7 days
  • Water Temperature
  • Satellite Maps
  • Weather Map
  • Weather Widgets
  • user-avatar
    Login

    Hourly Weather Canberra

    Today, 21 June, Friday

    Time Temperature Precipitation Wind Pressure Humidity
    00:00 +1°C° 0 mm 1 mps 713 mmHg 91%
    01:00 0°C° 0 mm 1 mps 712 mmHg 92%
    02:00 0°C° 0 mm 1 mps 712 mmHg 92%
    03:00 0°C° 0 mm 1 mps 712 mmHg 92%
    04:00 0°C° 0 mm 1 mps 712 mmHg 92%
    05:00 0°C° 0 mm 1 mps 713 mmHg 92%
    06:00 -1°C° 0 mm 1 mps 713 mmHg 92%
    07:00 -1°C° 0 mm 1 mps 713 mmHg 92%
    08:00 +2°C° 0 mm 1 mps 713 mmHg 81%
    09:00 +4°C° 0 mm 1 mps 714 mmHg 70%
    10:00 +6°C° 0 mm 2 mps 714 mmHg 60%
    11:00 +7°C° 0 mm 2 mps 714 mmHg 55%
    12:00 +8°C° 0 mm 2 mps 714 mmHg 50%
    13:00 +10°C° 0 mm 3 mps 714 mmHg 45%
    14:00 +9°C° 0 mm 3 mps 714 mmHg 49%
    15:00 +8°C° 0 mm 3 mps 714 mmHg 52%
    16:00 +8°C° 0 mm 3 mps 714 mmHg 55%
    17:00 +6°C° 0 mm 2 mps 714 mmHg 64%
    18:00 +4°C° 0 mm 2 mps 714 mmHg 73%
    19:00 +1°C° 0 mm 2 mps 715 mmHg 82%
    20:00 +1°C° 0 mm 2 mps 715 mmHg 85%
    21:00 +1°C° 0 mm 1 mps 715 mmHg 88%
    22:00 +1°C° 0 mm 1 mps 715 mmHg 91%
    23:00 +1°C° 0 mm 1 mps 715 mmHg 91%

    Tomorrow, 22 June, Saturday

    Time Temperature Precipitation Wind Pressure Humidity
    00:00 +1°C° 0 mm 1 mps 715 mmHg 91%
    01:00 0°C° 0 mm 1 mps 715 mmHg 92%
    02:00 0°C° 0 mm 1 mps 715 mmHg 92%
    03:00 0°C° 0 mm 1 mps 715 mmHg 92%
    04:00 -2°C° 0 mm 2 mps 715 mmHg 92%
    05:00 -2°C° 0 mm 2 mps 715 mmHg 92%
    06:00 -2°C° 0 mm 2 mps 715 mmHg 91%
    07:00 0°C° 0 mm 1 mps 715 mmHg 91%
    08:00 +1°C° 0 mm 2 mps 716 mmHg 80%
    09:00 +4°C° 0 mm 2 mps 716 mmHg 69%
    10:00 +5°C° 0 mm 3 mps 717 mmHg 58%
    11:00 +8°C° 0 mm 2 mps 716 mmHg 54%
    12:00 +9°C° 0 mm 2 mps 716 mmHg 49%
    13:00 +10°C° 0 mm 2 mps 715 mmHg 44%
    14:00 +10°C° 0 mm 2 mps 715 mmHg 49%
    15:00 +10°C° 0 mm 1 mps 715 mmHg 54%
    16:00 +10°C° 0 mm 1 mps 715 mmHg 58%
    17:00 +7°C° 0 mm 1 mps 715 mmHg 67%
    18:00 +5°C° 0 mm 1 mps 716 mmHg 75%
    19:00 +3°C° 0 mm 1 mps 716 mmHg 83%
    20:00 +3°C° 0 mm 1 mps 716 mmHg 86%
    21:00 +2°C° 0 mm 1 mps 716 mmHg 88%
    22:00 +2°C° 0 mm 1 mps 716 mmHg 91%
    23:00 +1°C° 0 mm 1 mps 716 mmHg 91%

    Day after tomorrow, 23 June, Sunday

    Time Temperature Precipitation Wind Pressure Humidity
    00:00 +1°C° 0 mm 1 mps 716 mmHg 92%
    01:00 -1°C° 0 mm 2 mps 716 mmHg 92%
    02:00 -2°C° 0 mm 2 mps 716 mmHg 92%
    03:00 -2°C° 0 mm 2 mps 716 mmHg 92%
    04:00 -2°C° 0 mm 2 mps 716 mmHg 91%
    05:00 -2°C° 0 mm 2 mps 716 mmHg 91%
    06:00 -2°C° 0 mm 2 mps 716 mmHg 91%
    07:00 -2°C° 0 mm 2 mps 717 mmHg 91%
    08:00 +2°C° 0 mm 2 mps 717 mmHg 83%
    09:00 +3°C° 0 mm 3 mps 718 mmHg 75%
    10:00 +5°C° 0 mm 3 mps 718 mmHg 67%
    11:00 +8°C° 0 mm 3 mps 718 mmHg 64%
    12:00 +9°C° 0 mm 3 mps 717 mmHg 60%
    13:00 +10°C° 0 mm 3 mps 717 mmHg 56%
    14:00 +10°C° 0 mm 3 mps 717 mmHg 58%
    15:00 +9°C° 0 mm 3 mps 717 mmHg 59%
    16:00 +9°C° 0 mm 3 mps 717 mmHg 61%
    17:00 +7°C° 0 mm 2 mps 717 mmHg 69%
    18:00 +5°C° 0 mm 2 mps 718 mmHg 78%
    19:00 +3°C° 0 mm 2 mps 718 mmHg 86%
    20:00 +2°C° 0 mm 2 mps 718 mmHg 88%
    21:00 +2°C° 0 mm 2 mps 718 mmHg 90%
    22:00 +1°C° 0 mm 2 mps 719 mmHg 91%
    23:00 +1°C° 0 mm 2 mps 719 mmHg 92%

    24 June, Monday

    Time Temperature Precipitation Wind Pressure Humidity
    00:00 +1°C° 0 mm 2 mps 719 mmHg 92%
    01:00 +1°C° 0 mm 2 mps 719 mmHg 92%
    02:00 +1°C° 0 mm 2 mps 719 mmHg 92%
    03:00 -1°C° 0 mm 2 mps 719 mmHg 92%
    04:00 -1°C° 0 mm 2 mps 719 mmHg 92%
    05:00 -1°C° 0 mm 2 mps 719 mmHg 91%
    06:00 -1°C° 0 mm 2 mps 720 mmHg 90%
    07:00 -1°C° 0 mm 2 mps 720 mmHg 89%
    08:00 +3°C° 0 mm 2 mps 720 mmHg 81%
    09:00 +6°C° 0 mm 2 mps 721 mmHg 73%
    10:00 +8°C° 0 mm 3 mps 721 mmHg 65%
    11:00 +9°C° 0 mm 2 mps 721 mmHg 62%
    12:00 +12°C° 0 mm 2 mps 721 mmHg 59%
    13:00 +13°C° 0 mm 2 mps 720 mmHg 56%
    14:00 +12°C° 0 mm 2 mps 720 mmHg 59%
    15:00 +10°C° 0 mm 2 mps 720 mmHg 62%
    16:00 +10°C° 0 mm 2 mps 720 mmHg 66%
    17:00 +8°C° 0 mm 2 mps 720 mmHg 74%
    18:00 +7°C° 0 mm 1 mps 720 mmHg 82%
    19:00 +5°C° 0 mm 1 mps 721 mmHg 91%
    20:00 +4°C° 0 mm 1 mps 721 mmHg 91%
    21:00 +4°C° 0 mm 1 mps 721 mmHg 92%
    22:00 +3°C° 0 mm 1 mps 721 mmHg 93%
    23:00 +3°C° 0 mm 1 mps 721 mmHg 93%

    25 June, Tuesday

    Time Temperature Precipitation Wind Pressure Humidity
    00:00 +3°C° 0 mm 1 mps 721 mmHg 93%
    01:00 +3°C° 0 mm 1 mps 721 mmHg 93%
    02:00 +3°C° 0 mm 1 mps 721 mmHg 93%
    03:00 +3°C° 0 mm 1 mps 721 mmHg 92%
    04:00 +2°C° 0 mm 1 mps 721 mmHg 92%
    05:00 +2°C° 0 mm 1 mps 721 mmHg 92%
    06:00 +2°C° 0 mm 1 mps 721 mmHg 91%
    07:00 +2°C° 0 mm 1 mps 722 mmHg 90%
    08:00 +5°C° 0 mm 1 mps 722 mmHg 81%
    09:00 +7°C° 0 mm 1 mps 722 mmHg 72%
    10:00 +10°C° 0 mm 1 mps 722 mmHg 62%
    11:00 +11°C° 0 mm 1 mps 722 mmHg 58%
    12:00 +12°C° 0 mm 1 mps 721 mmHg 54%
    13:00 +14°C° 0 mm 1 mps 721 mmHg 51%
    14:00 +13°C° 0 mm 1 mps 721 mmHg 54%
    15:00 +12°C° 0 mm 1 mps 721 mmHg 58%
    16:00 +11°C° 0 mm 1 mps 720 mmHg 62%
    17:00 +10°C° 0 mm 1 mps 721 mmHg 70%
    18:00 +8°C° 0 mm 1 mps 721 mmHg 78%
    19:00 +5°C° 0 mm 2 mps 722 mmHg 86%
    20:00 +4°C° 0 mm 2 mps 722 mmHg 86%
    21:00 +5°C° 0 mm 1 mps 722 mmHg 87%
    22:00 +5°C° 0 mm 1 mps 722 mmHg 88%
    23:00 +4°C° 0 mm 1 mps 722 mmHg 88%

    26 June, Wednesday

    Time Temperature Precipitation Wind Pressure Humidity
    00:00 +4°C° 0 mm 1 mps 722 mmHg 88%
    01:00 +3°C° 0 mm 1 mps 722 mmHg 89%
    02:00 +3°C° 0 mm 1 mps 722 mmHg 89%
    03:00 +3°C° 0 mm 1 mps 722 mmHg 88%
    04:00 +2°C° 0 mm 1 mps 721 mmHg 88%
    05:00 +2°C° 0 mm 1 mps 722 mmHg 88%
    06:00 +2°C° 0 mm 1 mps 722 mmHg 88%
    07:00 +2°C° 0 mm 1 mps 723 mmHg 87%
    08:00 +4°C° 0 mm 1 mps 723 mmHg 80%
    09:00 +7°C° 0 mm 1 mps 723 mmHg 72%
    10:00 +9°C° 0 mm 1 mps 723 mmHg 64%
    11:00 +11°C° 0 mm 1 mps 723 mmHg 60%
    12:00 +12°C° 0 mm 1 mps 722 mmHg 56%
    13:00 +13°C° 0 mm 1 mps 722 mmHg 52%
    14:00 +13°C° 0 mm 1 mps 722 mmHg 56%
    15:00 +12°C° 0 mm 1 mps 721 mmHg 60%
    16:00 +12°C° 0 mm 1 mps 721 mmHg 64%
    17:00 +10°C° 0 mm 1 mps 722 mmHg 71%
    18:00 +8°C° 0 mm 1 mps 722 mmHg 79%
    19:00 +6°C° 0 mm 1 mps 722 mmHg 87%
    20:00 +5°C° 0 mm 1 mps 722 mmHg 89%
    21:00 +5°C° 0 mm 1 mps 722 mmHg 91%
    22:00 +4°C° 0 mm 1 mps 722 mmHg 93%
    23:00 +4°C° 0 mm 1 mps 722 mmHg 94%
    Show more